2018-092A

Last updated on Mon Nov 19 2018 00:02:04 GMT+0000 (Coordinated Universal Time)

1 43704U 18092A 18322.56465478 -.00000493 00000-0 00000+0 0 9995 2 43704 51.6284 329.4409 0002796 64.6447 18.6805 15.56239305 199

Satellite not in orbit

2018-092A